Theta_e
337 336 336 336 333 332 329 326 328 330 327 329 329 329 326 324 325 324 325 323 332 333 333 330 330 330 329 325 322 323 322 322 324 323 321 321 319 319 317 318 317 317 317
334 335 336 336 335 331 329 327 326 329 328 328 328 327 324 323 323 323 325 326 322 330 331 331 331 330 328 327 323 321 325 321 321 322 321 320 318 317 317 316 316 316 316
334 333 333 336 335 332 330 328 326 329 329 327 322 322 322 321 322 322 324 326 325 322 325 328 329 328 326 324 323 321 324 322 320 321 320 319 318 316 316 316 315 315 315
333 334 334 335 334 332 330 330 328 327 328 326 323 321 321 321 320 321 323 324 323 323 323 323 324 324 323 322 321 322 324 321 318 318 317 316 316 315 315 314 314 314 314
333 332 332 333 334 333 330 329 329 327 327 327 325 321 322 321 320 320 323 322 320 318 321 321 320 320 320 318 321 324 324 318 318 318 316 315 315 315 315 314 314 313 312
330 332 332 331 332 331 329 328 327 326 326 327 326 321 321 321 320 321 323 320 318 317 319 318 318 318 319 317 322 326 324 319 317 317 315 315 314 314 314 313 313 312 312
326 328 330 331 331 329 329 328 326 325 325 325 321 319 320 321 321 323 321 319 318 317 317 317 317 320 318 318 319 324 323 321 317 317 316 315 314 314 313 312 312 311 311
325 326 327 329 329 328 327 326 325 325 324 324 320 318 316 319 321 321 321 320 319 317 317 317 318 321 321 320 321 321 323 321 320 318 317 315 314 313 313 312 311 311 310
322 325 326 326 327 327 325 326 325 324 324 321 321 320 317 317 317 320 321 321 320 319 317 317 316 319 322 320 320 319 322 321 321 320 318 316 315 314 313 312 311 311 310
319 320 322 325 326 326 325 325 325 324 324 321 319 320 320 318 317 318 318 320 320 320 318 317 317 317 320 321 319 318 319 320 320 321 319 317 316 314 313 312 311 311 310
318 319 321 322 325 326 326 325 324 324 323 322 321 319 318 317 318 316 319 317 319 320 320 317 317 317 317 319 319 318 319 321 319 320 320 319 317 316 314 313 312 311 310
313 319 320 322 323 325 325 325 325 324 323 322 321 320 318 316 314 314 313 318 318 317 319 317 317 317 317 317 318 318 318 319 319 319 319 320 318 317 315 314 312 311 310
306 315 320 322 323 324 324 324 324 324 323 322 321 320 319 319 319 316 315 313 314 315 316 317 316 316 316 316 317 317 318 318 319 317 318 319 319 318 316 315 313 312 310
298 308 315 320 322 323 324 324 323 323 323 323 322 321 319 318 318 317 318 315 313 312 314 316 317 316 316 315 316 317 316 317 317 316 316 317 318 316 315 315 314 313 312
293 303 309 319 320 322 323 323 323 323 323 322 322 321 320 318 318 318 318 319 317 314 314 315 315 317 316 315 315 315 316 316 316 316 315 314 314 315 314 314 314 313 312
291 297 303 318 320 321 323 323 323 322 322 322 322 321 320 319 318 318 319 319 318 316 316 316 318 317 316 316 316 315 315 315 315 315 315 314 313 312 313 313 313 313 313
289 292 298 312 318 319 321 322 322 322 322 321 321 321 321 320 319 318 317 318 317 317 316 316 316 317 315 315 315 315 315 315 315 315 315 314 314 312 312 311 311 312 312
288 289 294 304 317 318 320 320 321 320 320 321 321 320 320 319 319 318 317 316 316 316 316 315 315 315 315 315 315 314 314 314 314 314 314 314 314 313 312 312 312 310 310
287 287 292 295 306 316 318 319 319 319 320 320 320 320 319 319 318 317 317 316 316 316 316 315 316 314 313 314 313 313 313 314 314 314 313 313 312 312 312 312 311 311 309
286 287 290 292 297 303 317 317 318 318 318 318 318 318 318 318 318 318 318 317 317 317 316 314 314 313 313 312 311 312 313 314 314 313 313 313 312 312 309 309 310 310 309
285 287 287 290 293 297 302 317 317 317 317 316 317 317 317 317 316 316 316 315 314 314 315 314 313 312 311 309 311 314 312 314 313 312 312 312 311 310 310 308 307 308 308
284 286 286 288 290 292 296 303 316 315 316 316 316 316 315 316 316 317 315 315 315 315 314 313 312 310 311 312 313 313 312 308 303 311 310 311 311 309 310 309 309 307 306
284 285 285 286 289 291 292 298 307 314 314 315 315 316 316 316 316 316 316 315 316 316 316 314 313 312 312 313 313 312 309 308 306 309 308 305 308 307 308 308 307 305 303
284 284 284 285 289 290 291 296 299 305 307 309 311 312 313 314 315 315 315 315 315 314 313 313 313 313 313 312 312 312 310 308 307 306 306 302 306 306 307 305 305 303 301
283 283 284 285 288 290 291 294 297 299 301 302 304 306 308 310 311 311 312 312 312 312 312 312 312 312 311 311 310 310 309 306 302 302 305 301 302 302 303 303 303 301 299
283 283 283 286 289 290 291 293 295 297 298 299 300 301 302 305 307 308 307 309 310 310 310 310 310 310 310 309 308 310 309 304 303 298 304 300 300 299 298 299 301 299 297
Wind_Speed
33 30 29 29 28 26 24 21 21 24 24 22 21 21 16 13 10 7 7 2 7 17 21 23 22 18 17 13 7 5 6 6 7 7 4 6 6 8 8 8 7 7 8
29 27 29 32 31 29 26 25 25 25 26 24 21 19 17 15 12 7 6 8 1 10 16 17 16 16 15 12 9 5 10 11 9 8 7 5 6 8 7 6 6 6 7
31 29 33 33 34 31 28 26 26 26 27 24 20 19 17 15 15 12 10 12 11 7 10 12 14 12 10 8 8 10 12 12 8 8 7 6 8 8 7 6 6 6 6
30 29 33 35 35 33 30 30 29 28 29 27 22 21 20 19 20 17 16 13 12 13 11 12 12 12 10 8 8 12 17 11 8 9 6 6 7 7 7 6 6 5 5
33 33 33 36 36 35 33 32 31 30 30 28 26 23 21 20 22 23 22 18 12 8 11 13 11 9 10 9 13 17 18 12 10 8 8 8 8 8 7 7 6 6 5
32 33 33 32 35 35 35 32 32 31 32 32 25 22 21 21 22 22 24 20 16 12 13 11 12 14 13 11 15 19 19 14 15 11 10 10 9 8 7 7 7 6 6
32 32 31 34 35 35 37 37 30 26 23 29 23 17 18 20 19 22 22 21 20 16 16 15 17 18 18 13 17 21 18 15 12 13 13 12 10 9 8 7 7 6 5
33 34 34 32 35 33 33 35 31 24 19 32 17 17 2 5 16 22 22 25 25 20 19 16 16 17 23 17 15 15 18 16 14 14 15 14 12 11 10 9 8 7 6
26 34 36 36 34 34 34 37 36 32 23 30 27 13 3 4 4 13 23 25 27 25 22 19 20 17 22 20 17 16 20 18 15 15 15 14 13 12 11 10 9 8 8
23 28 32 34 36 37 35 38 40 36 32 26 24 25 11 12 4 3 12 23 26 27 26 22 21 20 22 23 19 18 21 21 18 16 15 15 14 12 12 12 11 10 10
23 27 30 34 36 37 38 39 37 35 37 32 32 25 15 12 13 4 4 11 24 29 29 25 26 23 22 22 21 19 20 20 19 17 16 17 16 14 12 13 13 12 12
19 28 30 33 36 40 40 41 41 40 37 33 34 29 26 13 7 4 2 11 16 18 29 26 28 27 26 26 24 22 22 21 22 18 18 18 17 17 15 15 14 14 14
26 19 28 30 33 37 39 41 41 40 38 38 36 35 37 33 25 14 9 4 2 7 12 28 29 30 27 27 27 26 24 23 24 22 21 19 19 19 19 18 16 17 17
27 28 25 33 35 36 40 42 40 39 39 39 37 34 33 34 32 30 18 13 2 4 10 11 29 32 30 28 28 27 26 26 26 25 23 22 22 21 21 24 21 20 20
22 25 28 31 36 37 41 41 37 36 37 38 36 37 36 33 32 34 32 27 11 5 6 13 12 28 34 32 30 29 29 30 30 29 28 27 26 25 24 23 26 27 27
25 19 25 31 35 37 40 39 34 34 35 34 34 37 35 32 33 34 32 30 28 14 4 26 22 19 24 30 34 32 32 32 31 32 32 32 32 30 29 27 27 29 31
29 23 21 24 37 37 37 40 34 32 34 34 34 36 35 32 32 32 32 31 27 23 12 16 23 21 22 17 21 27 33 34 33 32 33 34 35 34 33 32 32 31 32
31 27 20 13 30 38 37 37 36 35 37 34 33 33 32 32 32 31 30 29 29 29 19 15 20 19 20 21 20 20 22 24 27 30 32 33 34 35 35 35 35 34 36
29 29 22 15 9 32 37 39 38 35 35 34 33 33 31 34 31 29 29 28 30 32 29 20 16 17 20 18 19 21 21 23 26 27 28 30 31 33 36 37 38 37 37
27 31 26 26 13 15 37 39 37 35 33 33 34 33 31 32 28 29 29 28 28 27 25 22 17 15 15 18 18 17 21 23 26 28 28 31 33 32 31 33 36 38 38
25 25 25 26 22 19 20 35 36 34 32 31 32 29 28 29 30 29 28 26 23 22 21 18 14 13 14 13 15 19 21 26 28 28 31 33 33 34 33 33 34 36 38
24 25 25 25 25 21 25 6 38 34 31 30 28 26 25 24 25 25 25 24 27 25 21 19 17 12 20 25 24 23 23 20 6 27 31 34 33 34 37 36 36 36 37
24 21 24 24 21 23 22 18 23 31 28 25 24 24 21 20 21 22 22 20 21 25 25 24 19 19 21 26 23 24 27 26 21 23 21 22 27 30 31 32 34 34 35
24 23 20 21 22 22 21 19 14 21 21 20 20 19 18 18 20 22 23 26 24 23 22 21 21 22 22 19 22 24 26 26 26 25 24 13 25 30 33 30 29 31 31
20 22 20 18 15 17 12 14 16 13 15 14 11 12 14 14 13 12 15 18 18 20 20 22 24 23 21 19 18 18 24 22 11 14 25 23 20 23 28 29 28 27 28
18 18 19 12 11 13 13 15 13 10 11 12 10 6 3 7 11 15 12 12 15 18 21 21 20 20 19 17 18 22 23 20 15 5 18 17 17 14 5 10 19 25 26
Wind_Direction
200 199 202 203 203 203 195 190 188 186 187 184 181 181 178 185 183 166 149 59 123 156 156 160 159 158 147 143 152 186 205 173 147 137 183 131 116 115 110 111 109 104 100
220 204 204 203 207 202 197 194 192 189 187 188 182 182 193 196 203 199 172 151 120 151 154 156 151 150 143 151 157 217 188 193 185 180 148 148 132 127 127 121 113 107 100
218 207 211 208 212 207 201 197 195 193 192 193 194 185 199 204 204 214 209 172 164 168 180 173 165 154 164 172 210 233 201 171 190 185 148 144 145 143 143 135 127 119 111
227 219 215 213 218 210 202 200 198 198 200 201 201 192 200 210 212 208 216 200 185 177 192 207 197 198 207 230 233 205 186 170 207 179 177 174 164 160 156 150 142 134 125
228 226 222 220 218 215 207 205 201 203 204 204 209 200 206 213 215 216 207 208 213 247 212 198 202 226 236 241 214 199 172 183 191 193 194 181 179 176 171 163 157 148 140
232 229 229 221 220 216 207 207 207 205 209 207 208 195 204 214 216 218 201 208 219 234 220 226 243 240 219 216 208 184 176 186 204 198 200 189 191 188 185 176 172 167 161
234 231 225 225 224 214 211 209 203 197 198 203 185 188 200 213 211 200 206 211 215 219 217 232 234 218 204 207 216 204 177 181 177 183 190 193 193 197 197 193 188 185 184
238 232 228 221 221 213 209 203 195 189 193 194 177 162 128 228 211 212 213 211 212 219 221 224 229 216 208 210 202 200 192 189 187 183 190 194 198 201 204 203 203 202 201
248 238 235 228 218 210 207 206 198 191 186 192 189 166 141 205 160 218 217 215 216 217 212 222 227 217 210 212 216 217 207 199 198 197 191 198 201 206 209 214 215 213 215
262 245 236 231 228 214 206 204 201 197 189 186 191 202 190 151 171 182 225 216 215 215 216 218 226 221 216 216 223 231 220 216 206 205 204 205 206 210 215 219 223 225 225
266 254 242 235 229 219 212 207 199 195 193 192 194 194 199 178 168 146 185 207 218 218 220 211 219 224 221 222 224 229 225 218 207 210 218 211 211 211 223 225 227 229 232
295 258 250 240 232 222 214 211 205 199 195 199 198 196 194 175 179 150 132 191 209 221 220 218 213 222 227 229 229 224 225 226 224 218 219 226 224 220 217 225 232 234 235
280 287 246 234 227 223 215 211 203 201 197 196 196 197 198 205 205 187 145 120 133 218 227 230 225 223 228 229 231 227 226 230 229 228 221 227 231 230 223 222 230 233 234
294 276 277 239 228 220 212 209 203 202 199 200 200 198 199 201 199 195 182 148 136 197 225 243 235 228 227 229 228 228 229 232 234 234 234 230 233 239 242 230 229 230 232
307 281 275 242 230 219 211 204 198 200 200 202 203 200 200 201 203 202 199 192 170 170 206 230 237 231 230 230 232 232 234 235 236 237 239 241 240 239 245 245 243 239 235
328 301 282 244 227 219 205 198 200 202 199 201 202 199 202 202 202 205 208 207 206 182 189 215 223 231 231 228 233 237 239 241 241 243 244 245 247 246 244 244 250 254 245
338 338 301 247 225 220 209 203 200 201 200 199 202 195 199 198 200 206 208 209 206 200 205 216 215 216 229 230 231 238 242 245 247 247 247 250 250 250 250 251 250 250 252
346 332 329 283 230 219 202 197 197 199 200 196 195 193 194 193 197 202 201 201 205 210 215 220 217 215 223 229 234 239 243 246 249 253 251 251 252 253 252 252 252 251 252
343 327 7 345 312 216 200 199 199 195 196 195 192 190 191 192 194 196 201 203 209 217 219 218 224 230 225 228 231 237 241 249 255 255 258 259 257 255 255 254 252 251 251
336 353 10 9 17 9 197 189 184 188 187 186 189 193 191 193 195 200 206 210 214 212 215 217 222 219 219 230 235 242 248 249 255 256 259 259 262 262 259 255 254 250 250
342 356 0 16 29 35 358 175 177 178 176 178 187 195 205 208 209 204 206 209 206 204 202 201 200 206 212 218 227 242 248 260 263 262 264 261 262 262 264 260 255 253 249
344 1 356 11 14 20 360 37 166 167 176 179 181 189 198 198 201 208 206 209 212 208 200 202 204 201 222 235 241 251 249 251 269 270 264 263 263 265 266 264 260 259 254
348 349 1 351 10 11 346 4 134 152 161 167 172 180 188 197 202 206 213 217 220 223 225 216 205 207 219 239 245 243 245 246 244 254 265 261 269 269 269 269 267 263 255
338 351 354 339 17 3 352 5 72 123 133 141 157 169 186 195 200 206 208 210 213 212 223 232 237 242 241 241 247 259 264 263 258 258 256 252 267 270 273 270 268 266 258
332 345 340 351 2 348 353 6 62 92 118 122 135 153 165 170 177 202 216 221 229 235 235 240 245 251 253 251 254 257 245 238 241 242 254 245 259 263 268 270 269 264 256
329 329 333 355 360 348 10 13 32 45 87 105 108 127 145 190 207 214 223 234 232 237 249 249 249 245 245 249 252 248 250 226 225 210 243 225 246 242 268 261 262 257 254